Terminal Aerodrome Forecast
Issued by NWS Memphis, TN

Home | Current Version | Previous Version | Text Only | Print | Product List | Glossary On
Versions: 1 2 3 4 5 6 7 8 9 10 11 12 13 14 15 16 17 18
000
FTUS44 KMEG 220500
TAFMKL
TAF
KMKL 220531Z 2206/2306 00000KT 3SM BR SKC
      TEMPO 2209/2213 1SM BR
     FM221500 VRB03KT P6SM SCT030
     FM230000 00000KT P6SM SKC=

USA.gov is the U.S. government's official web portal to all federal, state and local government web resources and services.